�������l�o���
Date,Time,MP-1(��Sv/h),MP-2(��Sv/h),MP-3(��Sv/h),MP-4(��Sv/h),MP-5(��Sv/h),MP-6(��Sv/h),MP-7(��Sv/h),MP-8(��Sv/h),����,����(m/s),���J
2019/01/23,00:00,0.794,1.179,0.826,1.518,1.086,0.451,0.798,0.757,��,3.8,��
2019/01/23,00:10,0.792,1.182,0.826,1.517,1.085,0.453,0.800,0.758,��,4.5,��
2019/01/23,00:20,0.793,1.178,0.827,1.518,1.085,0.452,0.800,0.755,��,4.9,��
2019/01/23,00:30,0.792,1.176,0.826,1.517,1.085,0.452,0.799,0.757,��,4.7,��
2019/01/23,00:40,0.792,1.180,0.828,1.518,1.087,0.451,0.801,0.756,���k��,5.3,��
2019/01/23,00:50,0.792,1.180,0.824,1.518,1.088,0.451,0.799,0.756,���k��,4.0,��
2019/01/23,01:00,0.793,1.177,0.825,1.516,1.086,0.452,0.800,0.755,���k��,3.6,��
2019/01/23,01:10,0.794,1.179,0.825,1.518,1.087,0.451,0.799,0.757,���k��,3.4,��
2019/01/23,01:20,0.793,1.177,0.827,1.516,1.085,0.449,0.800,0.756,��,3.4,��
2019/01/23,01:30,0.792,1.179,0.826,1.517,1.085,0.451,0.799,0.758,��,4.0,��
2019/01/23,01:40,0.793,1.168,0.826,1.517,1.086,0.450,0.800,0.757,��,4.1,��
2019/01/23,01:50,0.793,1.173,0.826,1.517,1.085,0.452,0.800,0.756,��,4.1,��
2019/01/23,02:00,0.791,1.172,0.824,1.516,1.086,0.451,0.800,0.757,��,6.0,��
2019/01/23,02:10,0.792,1.173,0.826,1.517,1.085,0.451,0.800,0.756,��,5.7,��
2019/01/23,02:20,0.793,1.171,0.827,1.520,1.084,0.450,0.800,0.755,��,5.0,��
2019/01/23,02:30,0.792,1.173,0.826,1.517,1.085,0.451,0.799,0.758,��,4.9,��
2019/01/23,02:40,0.793,1.171,0.827,1.518,1.084,0.450,0.799,0.756,���쐼,4.4,��
2019/01/23,02:50,0.792,1.170,0.826,1.516,1.084,0.451,0.798,0.756,���쐼,4.1,��
2019/01/23,03:00,0.792,1.171,0.827,1.517,1.086,0.452,0.800,0.757,��,4.8,��
2019/01/23,03:10,0.793,1.171,0.826,1.515,1.084,0.452,0.799,0.758,��,4.9,��
2019/01/23,03:20,0.792,1.170,0.827,1.516,1.085,0.450,0.801,0.756,���쐼,4.2,��
2019/01/23,03:30,0.792,1.170,0.827,1.518,1.083,0.450,0.799,0.757,��,4.5,��
2019/01/23,03:40,0.793,1.172,0.826,1.515,1.083,0.450,0.798,0.757,��,4.9,��
2019/01/23,03:50,0.792,1.173,0.827,1.515,1.084,0.450,0.799,0.757,���k��,4.8,��
2019/01/23,04:00,0.791,1.170,0.824,1.513,1.086,0.452,0.800,0.759,��,4.3,��
2019/01/23,04:10,0.794,1.173,0.826,1.517,1.086,0.450,0.800,0.755,��,4.1,��
2019/01/23,04:20,0.793,1.173,0.826,1.516,1.085,0.451,0.798,0.756,��,3.9,��
2019/01/23,04:30,0.793,1.173,0.827,1.515,1.084,0.451,0.799,0.756,���쐼,4.3,��
2019/01/23,04:40,0.793,1.170,0.826,1.516,1.087,0.450,0.800,0.756,��,3.6,��
2019/01/23,04:50,0.792,1.172,0.826,1.516,1.083,0.451,0.799,0.757,��,3.4,��
2019/01/23,05:00,0.793,1.171,0.826,1.514,1.083,0.451,0.798,0.757,��,3.8,��
2019/01/23,05:10,0.792,1.169,0.825,1.517,1.084,0.453,0.800,0.757,��,4.6,��
2019/01/23,05:20,0.791,1.173,0.824,1.516,1.083,0.451,0.799,0.757,���쐼,3.0,��
2019/01/23,05:30,0.791,1.170,0.826,1.515,1.083,0.450,0.801,0.757,��,3.0,��
2019/01/23,05:40,0.791,1.170,0.824,1.516,1.084,0.452,0.800,0.758,��,3.3,��
2019/01/23,05:50,0.791,1.170,0.825,1.518,1.083,0.451,0.800,0.755,��,4.0,��
2019/01/23,06:00,0.791,1.171,0.825,1.516,1.084,0.450,0.800,0.756,��,3.5,��
2019/01/23,06:10,0.792,1.171,0.826,1.513,1.083,0.450,0.800,0.757,���쐼,3.4,��
2019/01/23,06:20,0.791,1.172,0.827,1.516,1.087,0.450,0.800,0.757,���쐼,2.9,��
2019/01/23,06:30,0.793,1.172,0.826,1.516,1.083,0.450,0.800,0.757,���쐼,2.3,��
2019/01/23,06:40,0.790,1.171,0.826,1.516,1.083,0.453,0.799,0.758,���쐼,2.0,��
2019/01/23,06:50,0.793,1.169,0.825,1.514,1.082,0.450,0.800,0.757,���쐼,2.0,��
2019/01/23,07:00,0.791,1.167,0.824,1.515,1.084,0.450,0.799,0.758,���k��,1.9,��
2019/01/23,07:10,0.794,1.169,0.824,1.514,1.084,0.450,0.798,0.757,���k��,1.7,��
2019/01/23,07:20,0.790,1.169,0.824,1.515,1.083,0.451,0.800,0.755,���k��,1.4,��
2019/01/23,07:30,0.792,1.164,0.826,1.514,1.082,0.451,0.798,0.756,��,0.8,��
2019/01/23,07:40,0.793,1.161,0.825,1.514,1.084,0.450,0.802,0.758,��쐼,0.9,��
2019/01/23,07:50,0.791,1.169,0.825,1.514,1.084,0.451,0.799,0.757,��쐼,1.7,��
2019/01/23,08:00,0.793,1.168,0.825,1.516,1.086,0.451,0.799,0.757,��,4.0,��
2019/01/23,08:10,0.792,1.168,0.826,1.513,1.086,0.451,0.799,0.758,��쓌,3.9,��
2019/01/23,08:20,0.795,1.168,0.825,1.516,1.084,0.451,0.802,0.758,��,3.8,��
2019/01/23,08:30,0.794,1.166,0.826,1.514,1.083,0.452,0.801,0.758,��,3.9,��
2019/01/23,08:40,0.795,1.166,0.827,1.518,1.086,0.452,0.801,0.758,��,3.7,��
2019/01/23,08:50,0.796,1.166,0.827,1.517,1.085,0.452,0.803,0.758,��,4.7,��
2019/01/23,09:00,0.794,1.158,0.815,1.517,1.086,0.452,0.802,0.757,��,4.8,��
2019/01/23,09:10,0.795,1.170,0.825,1.516,1.087,0.452,0.803,0.758,��,4.2,��
2019/01/23,09:20,0.794,1.169,0.827,1.518,1.086,0.452,0.802,0.757,��,4.2,��
2019/01/23,09:30,0.795,1.166,0.827,1.519,1.087,0.452,0.804,0.760,��쓌,4.2,��
2019/01/23,09:40,0.797,1.168,0.825,1.520,1.087,0.452,0.804,0.759,��쓌,4.5,��
2019/01/23,09:50,0.797,1.166,0.828,1.520,1.086,0.452,0.803,0.760,��쓌,5.8,��
2019/01/23,10:00,0.798,1.166,0.828,1.518,1.086,0.455,0.801,0.760,��쓌,5.6,��
2019/01/23,10:10,0.796,1.165,0.825,1.517,1.090,0.453,0.801,0.758,��쓌,6.8,��
2019/01/23,10:20,0.797,1.164,0.830,1.519,1.087,0.453,0.802,0.758,��쓌,7.0,��
2019/01/23,10:30,0.799,1.164,0.828,1.517,1.088,0.453,0.801,0.759,��쓌,7.4,��
2019/01/23,10:40,0.798,1.166,0.826,1.518,1.090,0.453,0.802,0.758,��,7.1,��
2019/01/23,10:50,0.795,1.166,0.828,1.518,1.090,0.454,0.802,0.761,��쓌,6.9,��
2019/01/23,11:00,0.797,1.167,0.827,1.518,1.090,0.454,0.800,0.757,��쓌,8.6,��
2019/01/23,11:10,0.799,1.171,0.829,1.518,1.088,0.456,0.802,0.758,��쓌,10.3,��
2019/01/23,11:20,0.797,1.174,0.828,1.520,1.088,0.455,0.802,0.759,��쓌,9.1,��
2019/01/23,11:30,0.796,1.176,0.828,1.520,1.091,0.456,0.802,0.759,��쓌,9.8,��
2019/01/23,11:40,0.796,1.176,0.831,1.520,1.090,0.455,0.801,0.760,��쓌,7.5,��
2019/01/23,11:50,0.799,1.174,0.831,1.522,1.090,0.455,0.803,0.759,��쓌,7.4,��
2019/01/23,12:00,0.799,1.176,0.831,1.521,1.089,0.456,0.800,0.760,��쓌,7.4,��
2019/01/23,12:10,0.799,1.175,0.830,1.517,1.089,0.455,0.802,0.759,��쓌,8.0,��
2019/01/23,12:20,0.801,1.173,0.831,1.521,1.088,0.457,0.801,0.761,��쓌,12.8,��
2019/01/23,12:30,0.799,1.174,0.830,1.522,1.090,0.455,0.802,0.761,��쓌,11.6,��
2019/01/23,12:40,0.799,1.171,0.831,1.521,1.088,0.456,0.803,0.762,��쓌,11.3,��
2019/01/23,12:50,0.800,1.171,0.831,1.522,1.089,0.456,0.801,0.760,��쓌,10.7,��
2019/01/23,13:00,0.800,1.165,0.833,1.521,1.088,0.455,0.803,0.760,��쓌,12.8,��
2019/01/23,13:10,0.800,1.169,0.830,1.523,1.086,0.455,0.803,0.760,��쓌,10.9,��
2019/01/23,13:20,0.800,1.169,0.829,1.518,1.089,0.456,0.804,0.760,��쓌,12.1,��
2019/01/23,13:30,0.798,1.170,0.829,1.519,1.087,0.457,0.803,0.759,��쓌,13.0,��
2019/01/23,13:40,0.800,1.168,0.831,1.520,1.088,0.459,0.804,0.758,��쓌,11.9,��
2019/01/23,13:50,0.798,1.167,0.830,1.519,1.088,0.457,0.803,0.759,��쓌,11.6,��
2019/01/23,14:00,0.800,1.171,0.829,1.521,1.089,0.458,0.804,0.757,��쓌,12.5,��
2019/01/23,14:10,0.800,1.168,0.830,1.521,1.088,0.457,0.805,0.758,��쓌,13.5,��
2019/01/23,14:20,0.798,1.172,0.830,1.521,1.088,0.458,0.805,0.759,��쓌,14.9,��
2019/01/23,14:30,0.800,1.170,0.830,1.522,1.090,0.456,0.805,0.756,��쓌,12.7,��
2019/01/23,14:40,0.798,1.170,0.831,1.519,1.089,0.458,0.806,0.757,��,8.8,��
2019/01/23,14:50,0.800,1.169,0.833,1.520,1.093,0.458,0.806,0.759,��,10.6,��
2019/01/23,15:00,0.800,1.172,0.829,1.523,1.092,0.458,0.807,0.758,��쓌,9.4,��
2019/01/23,15:10,0.799,1.173,0.833,1.520,1.094,0.459,0.804,0.758,��쓌,12.8,��
2019/01/23,15:20,0.801,1.179,0.835,1.519,1.092,0.458,0.806,0.760,��쓌,10.7,��
2019/01/23,15:30,0.800,1.177,0.831,1.520,1.091,0.458,0.807,0.760,��쓌,12.4,��
2019/01/23,15:40,0.799,1.176,0.831,1.523,1.090,0.458,0.806,0.760,��쓌,11.3,��
2019/01/23,15:50,0.800,1.178,0.830,1.520,1.092,0.459,0.807,0.761,��,10.5,��
2019/01/23,16:00,0.801,1.176,0.832,1.521,1.091,0.458,0.806,0.760,��,9.2,��
2019/01/23,16:10,0.801,1.180,0.832,1.520,1.089,0.457,0.807,0.761,��,8.0,��
2019/01/23,16:20,0.801,1.178,0.832,1.520,1.091,0.458,0.808,0.761,��,6.7,��
2019/01/23,16:30,0.799,1.180,0.831,1.518,1.089,0.457,0.806,0.761,��,7.8,��
2019/01/23,16:40,0.799,1.182,0.832,1.520,1.092,0.457,0.808,0.760,��,6.8,��
2019/01/23,16:50,0.800,1.176,0.833,1.523,1.091,0.457,0.808,0.759,��,6.2,��
2019/01/23,17:00,0.801,1.179,0.832,1.521,1.091,0.457,0.807,0.760,��,6.9,��
2019/01/23,17:10,0.800,1.176,0.832,1.523,1.092,0.456,0.805,0.760,��,6.7,��
2019/01/23,17:20,0.796,1.179,0.832,1.522,1.092,0.458,0.807,0.760,��,7.4,��
2019/01/23,17:30,0.799,1.178,0.833,1.518,1.091,0.457,0.806,0.760,��,7.3,��
2019/01/23,17:40,0.797,1.176,0.831,1.520,1.091,0.458,0.805,0.761,��,6.0,��
2019/01/23,17:50,0.798,1.176,0.830,1.520,1.092,0.457,0.806,0.758,��쐼,5.4,��
2019/01/23,18:00,0.798,1.166,0.832,1.520,1.093,0.456,0.806,0.759,��쐼,4.5,��
2019/01/23,18:10,0.800,1.093,0.831,1.518,1.089,0.458,0.806,0.760,��쐼,4.5,��
2019/01/23,18:20,0.798,1.127,0.830,1.519,1.089,0.458,0.805,0.761,��쐼,4.9,��
2019/01/23,18:30,0.800,1.128,0.830,1.519,1.091,0.456,0.805,0.759,��,5.3,��
2019/01/23,18:40,0.799,1.128,0.832,1.519,1.092,0.457,0.804,0.759,��쐼,4.8,��
2019/01/23,18:50,0.801,1.128,0.829,1.519,1.090,0.456,0.804,0.759,��,5.0,��
2019/01/23,19:00,0.800,1.128,0.831,1.521,1.091,0.455,0.805,0.760,��,4.4,��
2019/01/23,19:10,0.798,1.128,0.835,1.520,1.091,0.456,0.805,0.758,��,3.1,��
2019/01/23,19:20,0.799,1.128,0.831,1.517,1.091,0.457,0.805,0.758,��쐼,2.0,��
2019/01/23,19:30,0.800,1.126,0.832,1.519,1.090,0.456,0.806,0.761,��쐼,2.2,��
2019/01/23,19:40,0.797,1.128,0.831,1.521,1.091,0.456,0.806,0.759,��쐼,1.1,��
2019/01/23,19:50,0.799,1.130,0.832,1.520,1.090,0.457,0.805,0.760,��,3.4,��
2019/01/23,20:00,0.800,1.127,0.831,1.522,1.089,0.456,0.803,0.760,�k��,2.6,��
2019/01/23,20:10,0.799,1.129,0.828,1.520,1.091,0.456,0.804,0.760,�k��,4.3,��
2019/01/23,20:20,0.798,1.127,0.831,1.520,1.091,0.456,0.803,0.758,���k��,3.5,��
2019/01/23,20:30,0.800,1.126,0.832,1.519,1.091,0.457,0.804,0.759,�k�k��,2.8,��
2019/01/23,20:40,0.799,1.127,0.830,1.520,1.092,0.456,0.804,0.760,�k��,3.8,�L
2019/01/23,20:50,0.797,1.125,0.830,1.521,1.089,0.457,0.802,0.759,���k��,6.4,�L
2019/01/23,21:00,0.798,1.127,0.832,1.517,1.090,0.456,0.804,0.761,���k��,7.3,�L
2019/01/23,21:10,0.799,1.127,0.831,1.520,1.091,0.455,0.804,0.760,���k��,7.4,�L
2019/01/23,21:20,0.796,1.129,0.829,1.521,1.090,0.456,0.806,0.761,���k��,5.6,��
2019/01/23,21:30,0.799,1.127,0.831,1.521,1.092,0.455,0.805,0.760,���k��,5.0,��
2019/01/23,21:40,0.799,1.129,0.830,1.524,1.090,0.454,0.806,0.759,�k��,4.9,��
2019/01/23,21:50,0.798,1.127,0.833,1.519,1.091,0.455,0.805,0.758,�k��,5.3,��
2019/01/23,22:00,0.799,1.125,0.831,1.520,1.089,0.454,0.806,0.758,�k��,5.4,��
2019/01/23,22:10,0.798,1.126,0.828,1.522,1.089,0.455,0.805,0.761,�k��,5.6,��
2019/01/23,22:20,0.799,1.123,0.830,1.517,1.089,0.455,0.804,0.759,�k��,5.4,��
2019/01/23,22:30,0.797,1.126,0.830,1.518,1.089,0.454,0.805,0.758,�k��,7.7,��
2019/01/23,22:40,0.796,1.127,0.830,1.518,1.090,0.454,0.803,0.759,�k��,7.9,��
2019/01/23,22:50,0.797,1.126,0.830,1.519,1.088,0.455,0.804,0.758,�k��,7.7,��
2019/01/23,23:00,0.796,1.131,0.829,1.520,1.088,0.454,0.803,0.758,�k��,6.7,��
2019/01/23,23:10,0.796,1.144,0.829,1.519,1.090,0.452,0.805,0.759,�k��,5.7,��
2019/01/23,23:20,0.797,1.170,0.828,1.519,1.088,0.453,0.804,0.759,�k��,6.1,��
2019/01/23,23:30,0.797,1.166,0.830,1.520,1.089,0.454,0.804,0.759,�k��,5.2,��
2019/01/23,23:40,0.798,1.152,0.828,1.520,1.089,0.454,0.805,0.760,�k��,4.2,��
2019/01/23,23:50,0.797,1.152,0.831,1.518,1.088,0.452,0.805,0.758,�k��,6.4,��
